STARLINK-36806

Last updated on Fri Mar 27 2026 00:02:06 GMT+0000 (Coordinated Universal Time)

1 67965U 26038E 26085.50002314 .00053215 00000+0 16403-2 0 9999 2 67965 97.2853 96.3342 0001802 95.3462 249.2927 15.33421250 5901
UTC large
Height (km)
Speed (km/s)
/
Latitude / Longitude
Inclination (degrees)
Orbital Period (minutes)
Azimuth
Elevation
Range (km)
Doppler Factor

Next 0 passes for location: London (51.5072 / 0.1276)

Sorry there are no passes over London.